Weather History for Kahului, HI

Change the Weather History Date:

Thursday, January 2, 2014

  Actual Average Record
Temperature  
Mean Temperature 74 °F 72 °F  
Max Temperature 83 °F 81 °F 89 °F (1956)
Min Temperature 65 °F 64 °F 54 °F (1971)
Degree Days  
Heating Degree Days 0 0  
Month to date heating degree days 0 0  
Since 1 July heating degree days 0 0  
Cooling Degree Days 9 7  
Month to date cooling degree days 17 14  
Year to date cooling degree days 17 14  
Growing Degree Days 23 (Base 50)    
Moisture  
Dew Point 67 °F    
Average Humidity 76    
Maximum Humidity 93    
Minimum Humidity 58    
Precipitation  
Precipitation 0.01 in 0.10 in 1.18 in (2004)
Month to date precipitation 0.01 0.20  
Year to date precipitation 0.01 0.20  
Snow  
Snow 0.00 in - - ()
Month to date snowfall 0.0  
Since 1 July snowfall 0.0  
Snow Depth 0.00 in    
Sea Level Pressure  
Sea Level Pressure 29.84 in    
Wind  
Wind Speed 15 mph (SSW)    
Max Wind Speed 30 mph    
Max Gust Speed 37 mph    
Visibility 10 miles    
Events Rain    
T = Trace of Precipitation, MM = Missing Value Source: NWS Daily Summary

Daily Weather History Graph

Daily Weather History Graph

Search for Another Location

Airport:

Trip Planner

Search our weather history database for the weather conditions in past years. The results will help you decide how hot, cold, wet, or windy it might be!

Date:

Astronomy

Jan. 02, 2014 Rise Set
Actual Time 7:03 AM HST 5:56 PM HST
Civil Twilight 6:38 AM HST 6:21 PM HST
Nautical Twilight 6:11 AM HST 6:48 PM HST
Astronomical Twilight 5:44 AM HST 7:15 PM HST
Moon 8:07 AM HST (1/2) 7:49 PM HST (1/2)
Length of Visible Light 11h 42m
Length of Day
10h 53m
Waxing Crescent, 3% of the Moon is Illuminated
Jan 2
Waxing Crescent
Jan 7
First Quarter
Jan 15
Full
Jan 23
Last Quarter
Jan 30
New

Hourly Weather History & Observations

Time (HST) Temp. Heat Index Dew Point Humidity Pressure Visibility Wind Dir Wind Speed Gust Speed Precip Events Conditions
12:54 AM 68.0 °F - 63.0 °F 84% 29.92 in 10.0 mi SSW 3.5 mph - N/A   Clear
1:54 AM 66.0 °F - 63.0 °F 90% 29.91 in 10.0 mi South 4.6 mph - N/A   Clear
2:54 AM 66.9 °F - 62.1 °F 84% 29.89 in 10.0 mi South 3.5 mph - N/A   Clear
3:54 AM 64.9 °F - 61.0 °F 87% 29.88 in 10.0 mi Calm Calm - N/A   Clear
4:54 AM - - - N/A% 29.88 in 10.0 mi South 3.5 mph - N/A   Clear
5:54 AM 66.2 °F - 64.4 °F 94% 29.87 in 10.0 mi SSE 9.2 mph - N/A   Clear
6:54 AM 68.0 °F - 66.2 °F 94% 29.88 in 10.0 mi South 8.1 mph - N/A   Clear
7:54 AM 68.0 °F - 66.2 °F 94% 29.89 in 10.0 mi South 6.9 mph - N/A   Clear
8:54 AM 69.8 °F - 66.2 °F 88% 29.90 in 10.0 mi SSW 16.1 mph - N/A   Partly Cloudy
9:54 AM 80.1 °F 83.2 °F 70.0 °F 71% 29.90 in 10.0 mi SSW 18.4 mph - N/A   Scattered Clouds
10:54 AM 80.1 °F 82.9 °F 69.1 °F 69% 29.88 in 10.0 mi SSW 21.9 mph 27.6 mph N/A   Scattered Clouds
11:54 AM 82.0 °F 84.1 °F 66.0 °F 58% 29.86 in 10.0 mi SSW 23.0 mph 29.9 mph N/A   Scattered Clouds
12:54 PM 82.9 °F 86.5 °F 69.1 °F 63% 29.82 in 10.0 mi SSW 27.6 mph 36.8 mph N/A   Scattered Clouds
1:54 PM 82.0 °F 84.5 °F 66.9 °F 60% 29.80 in 10.0 mi SSW 25.3 mph 29.9 mph N/A   Scattered Clouds
2:54 PM 80.1 °F 82.9 °F 69.1 °F 69% 29.78 in 10.0 mi SSW 26.5 mph 33.4 mph 0.00 in   Scattered Clouds
3:46 PM 77.0 °F - 71.6 °F 83% 29.77 in 10.0 mi SSW 19.6 mph 25.3 mph 0.01 in Rain Light Rain
3:54 PM 77.0 °F - 71.1 °F 82% 29.78 in 10.0 mi SSW 20.7 mph - 0.01 in   Scattered Clouds
4:54 PM 79.0 °F - 68.0 °F 69% 29.78 in 10.0 mi SSW 17.3 mph 26.5 mph N/A   Partly Cloudy
5:54 PM 77.0 °F - 68.0 °F 74% 29.79 in 10.0 mi SSW 20.7 mph - N/A   Partly Cloudy
6:54 PM 77.0 °F - 68.0 °F 74% 29.81 in 10.0 mi SSW 16.1 mph - N/A   Scattered Clouds
7:54 PM 77.0 °F - 69.1 °F 76% 29.81 in 10.0 mi South 16.1 mph - N/A   Partly Cloudy
8:54 PM 75.9 °F - 68.0 °F 76% 29.81 in 10.0 mi SSW 18.4 mph 27.6 mph N/A   Mostly Cloudy
9:54 PM 75.9 °F - 68.0 °F 76% 29.82 in 10.0 mi SSW 19.6 mph - N/A   Scattered Clouds
10:54 PM 77.0 °F - 69.1 °F 76% 29.81 in 10.0 mi South 19.6 mph - N/A   Mostly Cloudy
11:54 PM 77.0 °F - 68.0 °F 74% 29.78 in 10.0 mi SSW 17.3 mph 28.8 mph N/A   Mostly Cloudy